GOOY

Details ICAO GOOY (DKR)
Name Dakar - Leopold Sedar Senghor Intl
Region Senegal
Timezone Africa/Dakar (UTC+0.0)
Plans Departing 1708
Arriving 1803
Stats Elevation 84 ft / 26 m (AMSL)
Location 14.740100° -17.490400°
Runways 2
Magnetic Variation 6.899° W
Sunrise 2021-12-01 07:21:00 UTC / 2021-12-01 07:21:00 Local
Sunset 2021-12-01 18:40:04 UTC / 2021-12-01 18:40:04 Local
Advertisement - Login to hide

Runways

ID Width Length Bearing (true/mag) Surface Threshold Overrun Markings Lighting
03 98 ft / 30 m 4,916 ft / 1,498 m 22.33° / 29.23° ASPHALT 0 ft / 0 m 98 ft / 30 m APP
18 148 ft / 45 m 11,483 ft / 3,500 m 172.61° / 179.51° ASPHALT 525 ft / 160 m 220 ft / 67 m APP EDGE THRESHOLD
21 98 ft / 30 m 4,916 ft / 1,498 m 202.33° / 209.23° ASPHALT 0 ft / 0 m 1,591 ft / 485 m APP
36 148 ft / 45 m 11,483 ft / 3,500 m 352.61° / 359.51° ASPHALT 0 ft / 0 m 213 ft / 65 m PREC-APP EDGE THRESHOLD ALSF-I

Approach Navaids

Runway Type Ident Frequency Range Bearing (true/mag) Slope Elevation
36 DME YF 110.30 MHz 18 nm / 33 km - - 73 ft / 22 m (AMSL)
36 LOC-ILS YF 110.30 MHz 18 nm / 33 km 352.33° / 359.22° - 65 ft / 20 m (AMSL)
36 GS YF 110.30 MHz 10 nm / 19 km 353.14° / 0.04° 3.01° 73 ft / 22 m (AMSL)
36 MM MM - - 352.57° / 359.47° - 144 ft / 44 m (AMSL)

Map

Weather


0- 5 10 15 20 25 30 35+ Temperature / °C

Clouds and Precipitation
Forecast for 2021-12-01 18:00 UTC. Updated 4 hours ago

Ground ~20,000 ft ~40,000 ft Winds

METAR

GOOY 011900Z 36006KT 4000 DU NSC 24/20 Q1011

TAF

TAF GOOY 011700Z 0118/0224 36008KT 3500 DU NSC= TAF GOBD 011700Z 0118/0224 36012KT 4500 DU NSC

Frequencies

Approach 120.50 MHz DAKAR CON
Tower 118.10 MHz DAKAR TWR
Recorded 121.30 MHz DAKAR ATIS
Warning: Do not use this data for real-world aviation or navigation. No guarantee of current accuracy is given.